KC3SOZ Weather Reports


time (UTC)temp
C
wind
direction
speed
KPH
gust
KPH
rain 1hr
cm
rain 24hr
cm
rain mn
cm
humidity
%
barometer
mb
20260507070428 10 178 3.2 11.3 0.00 0.03 0.03 85 1012.4
20260507065925 10 212 3.2 8.0 0.00 0.03 0.03 86 1012.4
20260507065422 10 344 6.4 12.9 0.00 0.03 0.03 86 1012.3
20260507064919 10 257 4.8 11.3 0.00 0.03 0.03 87 1012.2
20260507064417 10 319 4.8 9.7 0.00 0.03 0.03 89 1012.4
20260507063915 10 200 4.8 8.0 0.00 0.03 0.03 90 1012.4
20260507063412 10 325 4.8 11.3 0.00 0.03 0.03 90 1012.2
20260507062909 10 335 8.0 12.9 0.00 0.03 0.03 90 1012.3
20260507062405 10 321 8.0 11.3 0.00 0.03 0.03 92 1012.7
20260507061903 10 160 0.0 4.8 0.00 0.03 0.03 93 1012.5
20260507061401 10 325 6.4 8.0 0.00 0.03 0.03 93 1012.6
20260507060859 10 78 3.2 9.7 0.00 0.03 0.03 94 1012.3
20260507060355 10 122 1.6 3.2 0.00 0.03 0.03 95 1012.6
20260507055852 10 160 0.0 0.0 0.00 0.03 0.03 94 1012.5
20260507055347 10 153 1.6 4.8 0.13 0.03 0.03 93 1012.5
20260507054844 10 163 1.6 4.8 0.00 0.00 0.00 92 1012.4
20260507054340 10 170 1.6 8.0 0.00 0.00 0.00 91 1012.5
20260507053838 10 189 3.2 3.2 0.00 0.00 0.00 91 1012.3
20260507053335 10 161 1.6 11.3 0.00 0.00 0.00 90 1012.3
20260507052834 10 339 4.8 9.7 0.00 0.00 0.00 90 1012.3
20260507052330 10 148 1.6 4.8 0.00 0.00 0.00 90 1012.3
20260507051828 10 68 3.2 9.7 0.00 0.00 0.00 89 1012.3
20260507051326 10 246 4.8 8.0 0.00 0.00 0.00 90 1012.4
20260507050822 10 194 3.2 4.8 0.00 0.00 0.00 90 1012.3
20260507050319 10 315 3.2 4.8 0.00 0.00 0.00 90 1012.5
20260507045816 10 271 3.2 8.0 0.00 0.00 0.00 91 1012.3
20260507045312 10 174 1.6 3.2 0.00 0.00 0.00 91 1012.1
20260507044809 10 147 1.6 3.2 0.00 0.00 0.00 91 1012.8
20260507044306 10 225 6.4 8.0 0.00 0.00 0.00 90 1012.6
20260507043802 10 175 1.6 4.8 0.00 0.00 0.00 90 1012.5
20260507043258 10 146 0.0 3.2 0.00 0.00 0.00 89 1012.0
20260507042755 10 189 3.2 3.2 0.00 0.00 0.00 89 1012.1
20260507042250 10 154 0.0 8.0 0.00 0.00 0.00 88 1012.4
20260507041748 10 181 3.2 4.8 0.00 0.00 0.00 89 1012.5
20260507041244 10 150 1.6 8.0 0.00 0.00 0.00 89 1012.3
20260507040741 10 153 1.6 8.0 0.00 0.00 0.00 89 1012.4
20260507040237 10 258 4.8 9.7 0.00 0.00 0.00 89 1011.9
20260507035733 10 326 4.8 4.8 0.00 0.91 0.91 90 1011.9
20260507035229 10 118 1.6 4.8 0.00 0.91 0.91 90 1011.6
20260507034727 10 326 11.3 14.5 0.00 0.91 0.91 91 1011.7
20260507034223 10 75 3.2 4.8 0.00 0.91 0.91 91 1011.8
20260507033722 10 129 0.0 0.0 0.00 0.91 0.91 92 1011.8
20260507033219 10 95 1.6 3.2 0.00 0.91 0.91 92 1011.7
20260507032716 10 149 1.6 4.8 0.00 0.91 0.91 91 1012.2
20260507032212 10 169 1.6 8.0 0.00 0.91 0.91 90 1012.4
20260507031709 10 285 6.4 8.0 0.00 0.91 0.91 91 1012.2
20260507031206 10 79 1.6 8.0 0.00 0.91 0.91 91 1012.2
20260507030702 10 80 3.2 11.3 0.00 0.91 0.91 90 1012.1
20260507030200 10 152 1.6 4.8 0.00 0.91 0.91 91 1012.0
20260507025657 10 21 8.0 16.1 0.00 0.91 0.91 91 1012.0
20260507025154 10 69 4.8 8.0 0.00 0.91 0.91 92 1011.9
20260507024652 11 210 6.4 8.0 0.00 0.91 0.91 92 1011.9
20260507024149 11 138 1.6 8.0 0.00 0.91 0.91 92 1012.0
20260507023644 11 22 6.4 12.9 0.00 0.91 0.91 92 1011.7
20260507023142 11 58 6.4 9.7 0.00 0.91 0.91 92 1011.7
20260507022639 11 93 4.8 8.0 0.00 0.91 0.91 92 1011.6
20260507022134 11 197 1.6 3.2 0.00 0.91 0.91 93 1011.8
20260507021631 11 212 4.8 4.8 0.00 0.91 0.91 93 1012.1
20260507021126 11 127 1.6 4.8 0.00 0.91 0.91 93 1012.1
20260507020625 11 54 1.6 4.8 0.00 0.91 0.91 93 1012.1
20260507020121 11 95 3.2 8.0 0.00 0.91 0.91 92 1012.0
20260507015620 11 133 0.0 3.2 0.00 0.91 0.91 93 1012.0
20260507015117 11 165 1.6 3.2 0.00 0.91 0.91 92 1012.2
20260507014613 11 218 4.8 4.8 0.00 0.91 0.91 92 1011.9
20260507014109 11 158 0.0 8.0 0.00 0.91 0.91 91 1012.1
20260507013606 11 155 0.0 4.8 0.00 0.91 0.91 92 1012.1
20260507013103 11 307 4.8 8.0 0.00 0.91 0.91 92 1012.1
20260507012600 12 153 1.6 8.0 0.00 0.91 0.91 92 1012.2
20260507012055 12 147 4.8 9.7 0.00 0.91 0.91 92 1012.1
20260507011554 12 152 4.8 8.0 0.00 0.91 0.91 92 1011.7
20260507011050 12 156 0.0 11.3 0.00 0.91 0.91 93 1011.8
20260507010544 12 158 3.2 8.0 0.00 0.91 0.91 95 1012.0
20260507010040 12 141 0.0 1.6 0.00 0.91 0.91 95 1011.9
20260507005538 12 121 0.0 1.6 0.00 0.91 0.91 95 1012.0
20260507005029 12 126 0.0 4.8 0.00 0.91 0.91 95 1011.7
20260507004526 12 114 1.6 4.8 0.00 0.91 0.91 96 1011.5
20260507004024 12 145 0.0 0.0 0.00 0.91 0.91 96 1011.4
20260507003519 12 35 0.0 3.2 0.00 0.91 0.91 97 1011.3
20260507003014 12 156 1.6 1.6 0.00 0.91 0.91 96 1011.1
20260507002511 12 128 1.6 1.6 0.00 0.91 0.91 97 1011.1
20260507002007 13 145 0.0 1.6 0.00 0.91 0.91 96 1011.1
20260507001504 13 174 1.6 9.7 0.00 0.91 0.91 96 1010.7
20260507001001 13 141 0.0 3.2 0.00 0.91 0.91 96 1010.5
20260507000457 13 137 0.0 4.8 0.00 0.91 0.91 96 1010.4
20260506235952 13 25 3.2 11.3 0.00 0.91 0.91 96 1010.5
20260506235450 13 41 9.7 11.3 0.00 0.91 0.91 96 1010.2
20260506234946 13 34 8.0 11.3 0.00 0.91 0.91 96 1009.9
20260506234444 14 41 4.8 8.0 0.00 0.91 0.91 96 1009.8
20260506233941 15 349 4.8 11.3 0.00 0.91 0.91 95 1009.8
20260506233437 15 320 12.9 17.7 0.00 0.91 0.91 94 1009.6
20260506232934 15 27 3.2 9.7 0.00 0.91 0.91 97 1009.4
20260506232430 16 138 3.2 8.0 0.00 0.91 0.91 97 1009.1
20260506231926 16 175 4.8 8.0 0.00 0.91 0.91 97 1009.1
20260506231424 16 187 4.8 8.0 0.00 0.91 0.91 98 1009.1
20260506230921 16 260 8.0 9.7 0.00 0.91 0.91 97 1009.2
20260506230417 16 221 3.2 9.7 0.00 0.91 0.91 97 1009.3
20260506225914 16 223 6.4 9.7 0.00 0.91 0.91 96 1009.1
20260506225411 16 236 6.4 9.7 0.00 0.91 0.91 96 1009.1
20260506224908 16 241 3.2 12.9 0.00 0.91 0.91 96 1009.0
20260506224406 16 213 4.8 20.9 0.00 0.91 0.91 96 1008.9
20260506223901 16 204 4.8 9.7 0.00 0.91 0.91 99 1008.8
20260506223357 16 171 1.6 4.8 0.00 0.91 0.91 99 1008.9
20260506222854 16 187 3.2 9.7 0.00 0.91 0.91 99 1008.7
20260506222350 16 224 4.8 8.0 0.00 0.91 0.91 99 1009.0
20260506221848 16 184 3.2 4.8 0.00 0.91 0.91 99 1009.0
20260506221345 16 161 1.6 4.8 0.00 0.91 0.91 99 1008.8
20260506220842 16 184 3.2 4.8 0.00 0.91 0.91 99 1008.6
20260506220338 16 175 3.2 4.8 0.00 0.91 0.91 99 1008.4
20260506215835 16 217 4.8 11.3 0.00 0.91 0.91 99 1008.4
20260506215331 16 205 4.8 8.0 0.00 0.91 0.91 99 1008.4
20260506214827 16 230 3.2 4.8 0.00 0.91 0.91 99 1008.4
20260506214323 16 169 1.6 3.2 0.00 0.91 0.91 99 1008.2
20260506213822 16 160 1.6 3.2 0.00 0.91 0.91 99 1008.2
20260506213319 16 155 1.6 3.2 0.00 0.91 0.91 99 1008.2
20260506212816 16 208 4.8 8.0 0.18 0.91 0.91 99 1008.1
20260506212312 17 199 4.8 4.8 0.30 0.91 0.91 99 1008.0
20260506211807 17 193 3.2 4.8 0.13 0.89 0.89 97 1007.9
20260506211303 17 129 0.0 3.2 0.00 0.86 0.86 96 1007.8
20260506210801 17 352 4.8 8.0 0.00 0.86 0.86 95 1007.8
20260506210257 17 137 3.2 8.0 0.00 0.86 0.86 95 1007.7
20260506205755 17 185 1.6 4.8 0.00 0.86 0.86 94 1007.6
20260506205250 17 149 1.6 4.8 0.00 0.86 0.86 94 1007.6
20260506204747 17 202 4.8 9.7 0.00 0.86 0.86 93 1007.6
20260506204245 17 218 6.4 11.3 0.00 0.86 0.86 93 1007.4
20260506203742 17 232 6.4 11.3 0.00 0.86 0.86 93 1007.5
20260506203239 18 226 9.7 12.9 0.00 0.86 0.86 92 1007.4
20260506202737 18 245 14.5 17.7 0.00 0.86 0.86 92 1007.5
20260506202233 18 210 6.4 8.0 0.00 0.86 0.86 94 1007.3
20260506201730 18 230 6.4 12.9 0.00 0.86 0.86 93 1007.4
20260506201227 18 253 3.2 8.0 0.00 0.86 0.86 93 1007.4
20260506200724 17 210 6.4 12.9 0.00 0.86 0.86 94 1007.4
20260506200220 17 233 4.8 9.7 0.00 0.86 0.86 95 1007.5
20260506195716 17 168 1.6 8.0 0.00 0.86 0.86 95 1007.7
20260506195213 17 224 6.4 12.9 0.00 0.86 0.86 95 1007.6
20260506194705 17 207 4.8 11.3 0.00 0.86 0.86 96 1007.7
20260506194201 17 252 4.8 8.0 0.00 0.86 0.86 97 1007.8
20260506193659 17 206 6.4 9.7 0.00 0.86 0.86 96 1007.6
20260506193155 17 191 4.8 8.0 0.00 0.86 0.86 97 1007.8
20260506192652 17 216 9.7 12.9 0.00 0.86 0.86 96 1007.7
20260506192149 17 227 4.8 11.3 0.00 0.86 0.86 96 1007.8
20260506191646 17 232 8.0 14.5 0.00 0.86 0.86 96 1007.6
20260506191142 17 206 11.3 14.5 0.00 0.86 0.86 96 1007.9
20260506190639 17 192 8.0 12.9 0.00 0.86 0.86 97 1007.8
20260506190136 16 209 8.0 12.9 0.00 0.86 0.86 97 1008.1
20260506185633 16 183 8.0 9.7 0.00 0.86 0.86 99 1008.1
20260506185129 16 194 6.4 11.3 0.00 0.86 0.86 99 1008.0
20260506184626 16 232 8.0 11.3 0.00 0.86 0.86 99 1008.1
20260506184124 16 214 4.8 14.5 0.00 0.86 0.86 99 1008.1
20260506183620 16 139 1.6 9.7 0.00 0.86 0.86 99 1008.1
20260506183116 16 161 3.2 4.8 0.00 0.86 0.86 99 1008.1
20260506182614 16 159 0.0 4.8 0.00 0.86 0.86 99 1008.2
20260506182111 16 73 3.2 9.7 0.00 0.86 0.86 99 1008.2
20260506181609 16 230 4.8 4.8 0.00 0.86 0.86 99 1008.0
20260506181106 15 144 0.0 1.6 0.00 0.86 0.86 99 1008.1
20260506180602 15 149 1.6 3.2 0.00 0.86 0.86 99 1008.5
20260506180059 15 86 3.2 3.2 0.18 0.86 0.86 99 1008.4
20260506175555 15 249 1.6 3.2 0.00 0.84 0.84 99 1008.8
20260506175051 15 127 0.0 0.0 0.00 0.84 0.84 99 1008.7
20260506174550 15 137 0.0 1.6 0.00 0.84 0.84 99 1008.5
20260506174046 15 106 1.6 3.2 0.13 0.84 0.84 99 1008.6
20260506173544 15 113 1.6 3.2 0.13 0.84 0.84 99 1008.4
20260506173040 15 135 0.0 1.6 0.00 0.81 0.81 99 1008.5
20260506172538 15 156 1.6 1.6 0.18 0.81 0.81 99 1008.6
20260506172034 15 192 1.6 3.2 0.18 0.81 0.81 99 1008.2
20260506171531 15 171 1.6 3.2 0.13 0.79 0.79 99 1008.4
20260506171029 15 148 1.6 8.0 0.13 0.79 0.79 99 1008.6
20260506170526 15 185 3.2 11.3 0.18 0.76 0.76 99 1008.5
20260506170018 15 209 8.0 9.7 0.13 0.74 0.74 99 1008.5
20260506165516 15 195 9.7 16.1 0.30 0.74 0.74 99 1008.6
20260506165012 15 240 11.3 16.1 0.30 0.71 0.71 99 1008.4
20260506164509 15 200 11.3 16.1 0.13 0.69 0.69 99 1008.4
20260506164007 15 225 12.9 17.7 0.00 0.66 0.66 97 1008.2
20260506163502 15 222 9.7 24.1 0.00 0.66 0.66 98 1008.5
20260506162956 15 224 11.3 16.1 0.00 0.66 0.66 98 1008.5
20260506162455 15 213 8.0 12.9 0.00 0.66 0.66 98 1008.7
20260506161951 15 216 16.1 17.7 0.00 0.66 0.66 98 1008.6
20260506161449 15 194 17.7 27.4 0.00 0.66 0.66 97 1008.7
20260506160947 15 211 20.9 32.2 0.00 0.66 0.66 97 1008.5
20260506160444 15 208 12.9 25.7 0.00 0.66 0.66 98 1008.6
20260506155941 15 213 12.9 25.7 0.00 0.66 0.66 98 1008.5
20260506155438 15 229 19.3 27.4 0.00 0.66 0.66 98 1008.1
20260506153605 15 197 11.3 25.7 0.18 0.66 0.66 99 1007.9
20260506153103 15 154 17.7 25.7 0.18 0.66 0.66 99 1007.9
20260506152559 15 190 11.3 20.9 0.00 0.64 0.64 99 1008.1
20260506152057 15 207 14.5 25.7 0.18 0.64 0.64 99 1008.1
20260506151555 15 170 19.3 25.7 0.30 0.64 0.64 99 1008.1
20260506151052 15 156 11.3 17.7 0.30 0.61 0.61 99 1008.1
20260506150548 15 170 8.0 25.7 0.30 0.58 0.58 99 1008.2
20260506150045 15 194 9.7 22.5 0.43 0.56 0.56 99 1008.1
20260506145542 15 187 11.3 24.1 0.61 0.53 0.53 99 1008.6
20260506145040 15 199 9.7 17.7 0.48 0.48 0.48 99 1008.8
20260506144536 15 175 4.8 20.9 0.30 0.43 0.43 99 1009.1
20260506144034 15 210 12.9 22.5 0.00 0.38 0.38 99 1008.9
20260506143531 15 222 17.7 24.1 0.18 0.38 0.38 98 1008.9
20260506143030 15 224 12.9 22.5 0.18 0.38 0.38 98 1009.0
20260506142527 15 244 12.9 22.5 0.00 0.36 0.36 99 1008.9
20260506142025 15 191 8.0 20.9 0.13 0.36 0.36 99 1008.6
20260506141522 15 175 8.0 12.9 0.13 0.36 0.36 99 1008.4
20260506141021 15 209 8.0 12.9 0.18 0.33 0.33 98 1008.6
20260506140517 15 200 8.0 17.7 0.36 0.33 0.33 98 1008.5
20260506140015 15 220 6.4 14.5 0.30 0.30 0.30 98 1008.5
20260506135512 15 141 4.8 12.9 0.30 0.28 0.28 98 1008.7
20260506135008 15 227 9.7 14.5 0.18 0.25 0.25 97 1008.5
20260506134504 15 248 3.2 12.9 0.00 0.23 0.23 97 1008.8
20260506134000 15 254 4.8 11.3 0.13 0.23 0.23 97 1008.6
20260506133458 15 206 4.8 11.3 0.13 0.23 0.23 97 1009.0
20260506132954 15 161 8.0 14.5 0.00 0.20 0.20 96 1008.9
20260506132451 15 220 6.4 17.7 0.00 0.20 0.20 95 1008.9
20260506131949 15 231 19.3 24.1 0.00 0.20 0.20 96 1008.9
20260506131445 15 140 19.3 22.5 0.18 0.20 0.20 96 1008.8
20260506130942 15 234 8.0 12.9 0.18 0.20 0.20 99 1009.2
20260506130439 15 223 6.4 12.9 0.00 0.18 0.18 99 1009.1
20260506125937 15 171 3.2 11.3 0.00 0.18 0.18 99 1008.9
20260506125435 15 190 4.8 11.3 0.13 0.18 0.18 99 1008.9
20260506124933 15 192 11.3 16.1 0.30 0.18 0.18 95 1009.2
20260506124430 15 200 12.9 22.5 0.18 0.15 0.15 94 1009.0
20260506123928 15 190 12.9 22.5 0.13 0.13 0.13 93 1009.2
20260506123426 15 221 9.7 20.9 0.18 0.10 0.10 93 1009.2
20260506122923 15 227 11.3 16.1 0.18 0.10 0.10 93 1009.2
20260506122419 15 204 8.0 17.7 0.13 0.08 0.08 93 1009.3
20260506121918 16 191 8.0 16.1 0.13 0.08 0.08 91 1009.3
20260506121414 16 204 14.5 22.5 0.18 0.05 0.05 90 1009.3
20260506120911 16 217 12.9 20.9 0.13 0.03 0.03 89 1009.3
20260506120409 16 155 11.3 16.1 0.13 0.03 0.03 88 1009.4
20260506115906 16 225 11.3 17.7 0.00 0.00 0.00 85 1009.3
20260506115404 16 242 12.9 14.5 0.00 0.00 0.00 83 1009.0
20260506114902 17 169 14.5 20.9 0.00 0.00 0.00 83 1009.2
20260506114359 17 198 9.7 16.1 0.00 0.00 0.00 81 1008.9
20260506113858 17 149 9.7 17.7 0.00 0.00 0.00 82 1008.6
20260506113355 17 178 14.5 17.7 0.00 0.00 0.00 81 1008.5
20260506112851 17 155 8.0 16.1 0.00 0.00 0.00 81 1008.6
20260506112349 17 231 12.9 17.7 0.00 0.00 0.00 82 1008.6
20260506111846 17 184 8.0 20.9 0.00 0.00 0.00 79 1008.4
20260506111344 17 201 17.7 29.0 0.00 0.00 0.00 79 1008.5
20260506110841 17 194 17.7 20.9 0.00 0.00 0.00 78 1008.5
20260506110338 17 187 12.9 24.1 0.00 0.00 0.00 76 1008.5
20260506105835 17 137 9.7 24.1 0.00 0.00 0.00 75 1008.6
20260506105332 18 199 14.5 29.0 0.00 0.00 0.00 72 1008.5
20260506104830 18 209 14.5 27.4 0.00 0.00 0.00 72 1008.1
20260506104327 18 194 9.7 29.0 0.00 0.00 0.00 72 1008.1
20260506103824 18 165 16.1 29.0 0.00 0.00 0.00 70 1007.8
20260506103322 18 168 14.5 22.5 0.00 0.00 0.00 70 1007.9
20260506102819 18 136 9.7 20.9 0.00 0.00 0.00 70 1007.9
20260506102317 18 232 14.5 24.1 0.00 0.00 0.00 69 1007.9
20260506101814 18 160 16.1 25.7 0.00 0.00 0.00 69 1007.7
20260506101310 18 184 11.3 16.1 0.00 0.00 0.00 70 1007.9
20260506100808 18 191 12.9 16.1 0.00 0.00 0.00 70 1007.6
20260506100306 18 186 11.3 24.1 0.00 0.00 0.00 68 1007.7
20260506095804 18 174 14.5 25.7 0.00 0.00 0.00 69 1007.5
20260506095301 18 191 8.0 17.7 0.00 0.00 0.00 67 1007.6
20260506094757 18 198 6.4 16.1 0.00 0.00 0.00 68 1007.9
20260506094256 18 174 8.0 12.9 0.00 0.00 0.00 68 1007.8
20260506093754 18 162 6.4 11.3 0.00 0.00 0.00 67 1008.0
20260506093251 19 180 8.0 24.1 0.00 0.00 0.00 66 1008.0
20260506092749 19 166 12.9 27.4 0.00 0.00 0.00 65 1008.0
20260506092246 19 211 11.3 16.1 0.00 0.00 0.00 65 1008.2
20260506091743 19 190 14.5 27.4 0.00 0.00 0.00 64 1008.2
20260506091241 19 185 4.8 11.3 0.00 0.00 0.00 64 1008.2
20260506090739 19 168 9.7 17.7 0.00 0.00 0.00 63 1008.1
20260506090235 19 191 9.7 12.9 0.00 0.00 0.00 64 1008.4
20260506085732 19 159 14.5 20.9 0.00 0.00 0.00 63 1008.2
20260506085228 20 208 9.7 17.7 0.00 0.00 0.00 63 1008.4
20260506084726 20 182 8.0 12.9 0.00 0.00 0.00 63 1008.1
20260506084221 20 197 16.1 27.4 0.00 0.00 0.00 62 1008.0
20260506083719 20 228 24.1 29.0 0.00 0.00 0.00 61 1008.2
20260506083216 20 197 8.0 20.9 0.00 0.00 0.00 62 1008.2
20260506082714 20 155 16.1 20.9 0.00 0.00 0.00 61 1008.5
20260506082209 20 178 8.0 20.9 0.00 0.00 0.00 61 1008.0
20260506081707 20 189 17.7 24.1 0.00 0.00 0.00 60 1008.0
20260506081204 20 215 14.5 29.0 0.00 0.00 0.00 60 1008.0
20260506080702 20 161 6.4 16.1 0.00 0.00 0.00 61 1008.0
20260506080158 20 202 9.7 29.0 0.00 0.00 0.00 60 1008.0
20260506073143 20 193 20.9 29.0 0.00 0.00 0.00 57 1008.0
20260506072639 20 142 12.9 27.4 0.00 0.00 0.00 57 1007.9
20260506072137 20 130 8.0 12.9 0.00 0.00 0.00 57 1008.1
20260506071634 20 212 11.3 24.1 0.00 0.00 0.00 57 1008.7
20260506071132 20 169 8.0 14.5 0.00 0.00 0.00 57 1008.5
20260506070628 20 190 19.3 24.1 0.00 0.00 0.00 56 1008.5